Weather History for Johnstown, PA

Change the Weather History Date:

Wednesday, February 13, 2013

  Actual Average Record
Temperature  
Mean Temperature 32 °F 27 °F  
Max Temperature 37 °F 34 °F 68 °F (1938)
Min Temperature 26 °F 20 °F -11 °F (1917)
Degree Days  
Heating Degree Days 34 38  
Month to date heating degree days 511  
Since 1 July heating degree days 4328  
Cooling Degree Days 0 0  
Month to date cooling degree days 0  
Year to date cooling degree days 0  
Moisture  
Dew Point 25 °F    
Average Humidity 83    
Maximum Humidity 100    
Minimum Humidity 50    
Precipitation  
Precipitation 0.28 in 0.08 in 1.13 in (1966)
Month to date precipitation 1.10  
Year to date precipitation 3.98  
Sea Level Pressure  
Sea Level Pressure 29.72 in    
Wind  
Wind Speed 5 mph (WSW)    
Max Wind Speed 17 mph    
Max Gust Speed 21 mph    
Visibility 4 miles    
Events Fog , Snow    
T = Trace of Precipitation, MM = Missing Value Source: NWS Daily Summary

Daily Weather History Graph

Daily Weather History Graph

Search for Another Location

Airport:

Trip Planner

Search our weather history database for the weather conditions in past years. The results will help you decide how hot, cold, wet, or windy it might be!

Date:

Astronomy

Feb. 13, 2013 Rise Set
Actual Time 7:10 AM EST 5:48 PM EST
Civil Twilight 6:42 AM EST 6:16 PM EST
Nautical Twilight 6:11 AM EST 6:48 PM EST
Astronomical Twilight 5:39 AM EST 7:20 PM EST
Moon 8:38 AM EST (2/13) 9:50 PM EST (2/13)
Length of Visible Light 11h 33m
Length of Day
10h 37m
Waxing Crescent, 13% of the Moon is Illuminated
Feb 13
Waxing Crescent
Feb 17
First Quarter
Feb 25
Full
Mar 4
Last Quarter
Mar 11
New

Hourly Weather History & Observations

Time (EST) Temp. Windchill Dew Point Humidity Pressure Visibility Wind Dir Wind Speed Gust Speed Precip Events Conditions
12:54 AM 30.0 °F 24.1 °F 21.0 °F 69% 29.92 in 10.0 mi SW 5.8 mph - N/A   Clear
1:54 AM 30.0 °F 26.5 °F 19.9 °F 66% 29.90 in 10.0 mi SSW 3.5 mph - N/A   Clear
2:54 AM 30.0 °F 24.1 °F 19.0 °F 64% 29.88 in 10.0 mi SSW 5.8 mph - N/A   Clear
3:54 AM 28.9 °F 23.9 °F 19.0 °F 67% 29.86 in 10.0 mi South 4.6 mph - N/A   Clear
4:54 AM 28.0 °F 22.8 °F 18.0 °F 66% 29.86 in 10.0 mi WSW 4.6 mph - N/A   Clear
5:54 AM 28.0 °F 22.8 °F 18.0 °F 66% 29.85 in 10.0 mi SW 4.6 mph - N/A   Clear
6:54 AM 28.9 °F 22.8 °F 19.9 °F 69% 29.83 in 10.0 mi South 5.8 mph - N/A   Overcast
7:54 AM 30.0 °F 26.5 °F 18.0 °F 61% 29.81 in 10.0 mi SSE 3.5 mph - N/A   Partly Cloudy
8:54 AM 33.1 °F - 19.9 °F 59% 29.79 in 10.0 mi Calm Calm - N/A   Overcast
9:54 AM 33.1 °F - 21.9 °F 64% 29.78 in 10.0 mi Calm Calm - N/A   Overcast
10:54 AM 37.9 °F 34.4 °F 21.9 °F 53% 29.77 in 10.0 mi SE 4.6 mph - N/A   Overcast
11:54 AM 37.0 °F 31.6 °F 19.9 °F 50% 29.75 in 10.0 mi SSE 6.9 mph - N/A   Overcast
12:54 PM 37.0 °F 34.5 °F 21.0 °F 52% 29.72 in 10.0 mi Variable 3.5 mph - N/A   Overcast
1:54 PM 35.1 °F 31.0 °F 21.9 °F 59% 29.70 in 10.0 mi SE 4.6 mph - N/A   Overcast
2:54 PM 35.1 °F 30.1 °F 23.0 °F 61% 29.69 in 10.0 mi SSE 5.8 mph - N/A   Overcast
3:13 PM 33.8 °F - 24.8 °F 70% 29.62 in 2.5 mi Calm Calm - 0.00 in Snow Light Snow
3:42 PM 30.2 °F 25.4 °F 26.6 °F 86% 29.62 in 0.8 mi South 4.6 mph - 0.00 in Snow Light Snow
3:54 PM 30.0 °F - 28.0 °F 92% 29.69 in 0.2 mi Calm Calm - 0.01 in Fog , Snow Heavy Snow
4:08 PM 30.2 °F - 28.4 °F 93% 29.62 in 0.2 mi Calm Calm - 0.02 in Fog , Snow Heavy Snow
4:26 PM 30.2 °F - 28.4 °F 93% 29.61 in 0.5 mi Calm Calm - 0.03 in Fog , Snow Snow
4:32 PM 30.2 °F - 28.4 °F 93% 29.61 in 0.5 mi Calm Calm - 0.04 in Fog , Snow Snow
4:40 PM 30.2 °F - 28.4 °F 93% 29.61 in 0.2 mi Calm Calm - 0.05 in Fog , Snow Snow
4:45 PM 30.2 °F - 28.4 °F 93% 29.61 in 0.5 mi Calm Calm - 0.05 in Fog , Snow Snow
4:54 PM 30.0 °F - 28.0 °F 92% 29.69 in 0.5 mi Calm Calm - 0.07 in Fog , Snow Snow
5:01 PM 30.2 °F - 28.4 °F 93% 29.61 in 0.5 mi Calm Calm - 0.00 in Fog , Snow Snow
5:17 PM 30.2 °F - 28.4 °F 93% 29.61 in 0.2 mi Calm Calm - 0.02 in Fog , Snow Snow
5:54 PM 30.0 °F - 28.0 °F 92% 29.69 in 0.2 mi Calm Calm - 0.09 in Fog , Snow Heavy Snow
6:10 PM 30.2 °F - 28.4 °F 93% 29.63 in 0.5 mi Calm Calm - 0.04 in Fog , Snow Snow
6:54 PM 30.0 °F 26.5 °F 28.0 °F 92% 29.70 in 1.0 mi West 3.5 mph - 0.08 in Snow Light Snow
7:31 PM 30.2 °F 25.4 °F 28.4 °F 93% 29.65 in 1.2 mi West 4.6 mph - 0.01 in Snow Light Snow
7:51 PM 30.2 °F 25.4 °F 28.4 °F 93% 29.66 in 0.5 mi West 4.6 mph - 0.02 in Fog , Snow Light Snow
7:54 PM 30.0 °F 25.2 °F 28.9 °F 96% 29.73 in 0.2 mi West 4.6 mph - 0.02 in Fog , Snow Light Snow
8:12 PM 30.2 °F 25.4 °F 28.4 °F 93% 29.66 in 0.5 mi West 4.6 mph - 0.00 in Fog , Snow Light Snow
8:33 PM 30.2 °F 22.6 °F 28.4 °F 93% 29.67 in 1.2 mi WNW 8.1 mph - 0.01 in Snow Light Snow
8:54 PM 28.9 °F 23.9 °F 28.0 °F 96% 29.74 in 1.2 mi West 4.6 mph - 0.01 in Snow Light Snow
9:46 PM 28.4 °F 18.5 °F 28.4 °F 100% 29.69 in 2.5 mi WNW 11.5 mph - 0.00 in   Overcast
9:54 PM 28.9 °F 20.4 °F 28.0 °F 96% 29.76 in 2.0 mi WNW 9.2 mph - 0.00 in   Overcast
10:11 PM 28.4 °F 22.2 °F 28.4 °F 100% 29.70 in 0.8 mi West 5.8 mph - N/A   Overcast
10:23 PM 28.4 °F 19.1 °F 28.4 °F 100% 29.70 in 0.2 mi WNW 10.4 mph - N/A Fog Light Freezing Fog
10:35 PM 28.4 °F 17.5 °F 26.6 °F 93% 29.70 in 0.5 mi West 13.8 mph - N/A Fog Light Freezing Fog
10:46 PM 28.4 °F 17.5 °F 26.6 °F 93% 29.71 in 0.2 mi WNW 13.8 mph - N/A Fog Light Freezing Fog
10:54 PM 28.0 °F 18.1 °F 27.0 °F 96% 29.77 in 0.5 mi WNW 11.5 mph - N/A Fog Light Freezing Fog
11:07 PM 28.4 °F 18.0 °F 26.6 °F 93% 29.71 in 1.5 mi West 12.7 mph - N/A   Overcast
11:24 PM 28.4 °F 19.1 °F 26.6 °F 93% 29.72 in 2.0 mi West 10.4 mph - N/A   Overcast
11:46 PM 26.6 °F 14.3 °F 26.6 °F 100% 29.72 in 3.0 mi West 16.1 mph 20.7 mph N/A   Overcast
11:54 PM 27.0 °F 14.3 °F 26.1 °F 96% 29.79 in 3.0 mi West 17.3 mph - N/A   Overcast